Wind_Speed
5 5 5 4 4 4 4 5 6 6 6 6 6 6 7 8 9 10 11 13 14 15 16 18 19 21 23 24 24 22 21 20 19 19 19 19 19 21 22 22 23 24 26 28 30 30 30 31 34 36 36 36 36 37 37 38 39 40 41 43 44 45 45 45 45 45 45 44 42 40 39 40 42 44 44 45 46 46 45 44 45 45 45 46 44 40 39 39
6 6 5 5 4 4 5 6 7 7 7 7 8 9 9 10 11 12 13 14 15 16 17 18 19 21 23 25 24 22 20 18 18 17 17 18 19 20 21 22 23 23 25 27 29 31 31 31 31 33 35 36 36 37 37 38 38 40 41 43 44 45 45 46 46 46 46 46 45 44 42 41 43 44 45 45 47 47 47 46 45 45 47 49 46 41 41 41
6 6 5 5 5 5 5 6 7 8 9 9 10 11 12 12 13 13 14 14 15 16 16 17 19 21 23 24 22 20 18 18 17 16 16 16 18 19 20 21 22 23 23 24 26 29 31 31 31 32 33 34 36 37 37 38 39 41 41 43 44 45 46 46 46 47 47 47 47 46 45 44 44 45 46 46 48 48 48 49 48 46 47 48 47 43 41 43
7 6 5 5 5 5 6 7 8 9 10 11 12 13 13 13 14 14 14 15 15 15 16 17 19 21 23 21 19 17 16 15 14 13 14 16 17 18 19 20 20 21 22 23 24 26 28 30 30 30 31 33 34 36 37 38 40 41 41 43 45 45 46 46 46 47 47 48 48 48 48 46 46 46 47 48 49 50 50 52 52 50 48 48 49 45 43 44
8 7 7 6 6 6 7 8 9 10 11 11 12 13 13 14 14 14 15 15 15 15 16 18 20 21 21 18 16 15 13 13 13 13 15 17 18 19 19 20 20 20 20 21 21 22 24 25 27 28 29 30 32 34 35 37 39 40 41 43 44 45 46 46 47 47 47 48 49 50 50 49 48 48 49 49 50 52 53 54 54 53 52 52 52 49 46 47
8 8 7 7 7 7 8 8 9 10 11 12 12 13 13 14 14 15 15 15 15 16 17 19 20 19 17 15 14 13 12 14 15 16 17 18 19 19 20 21 22 23 23 22 21 21 21 22 23 25 26 28 29 32 33 35 37 39 41 43 44 45 46 47 47 47 47 48 49 50 51 51 50 49 49 51 52 54 56 56 56 56 55 55 55 52 50 50
8 8 8 8 8 8 8 9 9 10 11 12 12 13 13 14 14 15 15 16 16 16 18 18 18 17 15 14 14 13 13 15 17 17 18 18 19 21 22 24 24 24 23 23 22 21 21 21 20 21 22 24 26 28 30 32 35 37 40 42 44 45 46 47 47 48 48 48 49 50 52 51 50 50 50 52 54 56 57 56 57 57 57 57 56 55 54 54
8 7 7 7 7 8 8 9 9 10 11 11 12 13 13 14 14 15 15 15 15 16 16 15 14 14 13 13 13 13 15 16 17 18 18 19 21 24 25 25 24 23 23 22 20 18 18 18 19 19 19 21 22 25 27 29 32 34 37 40 43 44 46 47 47 48 49 50 50 51 51 51 51 51 51 52 55 57 58 57 58 58 58 57 57 57 57 57
8 7 7 7 7 7 8 9 9 10 11 11 12 12 13 14 14 15 14 15 15 14 13 12 12 11 10 11 12 15 17 17 18 18 19 22 24 25 25 26 27 28 28 25 22 18 14 12 14 15 17 18 19 22 24 28 32 34 36 39 41 42 43 45 46 48 50 52 52 52 52 52 53 54 53 53 55 57 58 58 59 59 58 58 58 58 58 58
9 9 8 8 8 8 8 9 9 10 10 11 11 12 13 13 13 14 14 14 14 13 13 13 13 12 12 14 16 18 19 19 19 20 22 25 25 26 28 31 34 35 34 31 28 26 21 14 11 9 12 13 14 16 19 24 29 32 35 37 38 40 41 43 44 47 50 52 54 55 55 54 55 55 54 54 55 57 58 59 59 59 59 59 59 59 58 58
13 12 11 11 10 10 10 10 10 10 10 11 11 12 13 13 13 14 14 14 14 15 16 16 16 16 16 19 20 20 19 19 20 22 25 26 26 28 32 36 38 39 39 37 37 39 36 30 24 17 11 10 9 10 11 15 20 26 31 34 36 37 39 41 43 46 49 51 53 55 55 55 55 53 53 54 55 56 57 58 60 60 60 60 60 59 59 58
18 16 15 14 13 13 12 12 12 12 12 13 13 13 14 15 15 16 16 16 18 19 18 19 20 19 19 22 21 18 20 21 22 25 26 26 27 31 35 38 39 40 41 41 43 46 44 40 35 25 17 14 12 10 8 7 9 14 21 26 31 34 36 38 41 44 47 49 51 52 53 53 54 53 53 54 56 56 56 57 59 60 60 60 59 59 59 59
23 21 19 18 17 16 16 16 16 16 16 16 17 17 18 19 19 19 20 21 22 22 22 23 23 22 24 23 20 20 22 23 25 28 27 27 29 33 36 38 38 39 41 43 45 46 45 44 41 33 28 26 22 18 14 12 10 7 8 14 20 27 32 35 38 41 45 48 49 49 49 51 52 53 54 54 55 56 56 56 56 58 59 59 58 58 58 58
28 26 25 23 22 21 20 20 20 20 20 21 21 22 23 23 22 23 24 25 25 24 24 26 25 26 27 23 22 24 25 26 29 29 27 28 31 34 36 36 37 38 40 42 44 44 45 45 42 38 40 40 34 26 22 20 18 16 12 7 8 15 22 28 33 37 41 44 46 46 46 47 48 50 51 52 54 55 55 55 54 55 56 57 58 57 57 58
33 32 30 28 26 25 24 24 23 23 23 24 24 25 25 25 25 26 27 27 26 25 27 27 27 28 26 24 25 27 27 29 29 27 27 28 31 32 33 34 36 38 39 41 42 44 45 44 40 42 47 46 41 37 33 30 26 23 21 17 11 6 9 16 23 29 34 38 41 42 42 43 44 45 46 48 50 52 53 54 54 54 55 56 57 57 57 57
37 35 34 33 31 29 28 27 27 26 25 25 25 25 25 27 28 28 28 26 25 27 29 28 29 29 26 25 28 28 28 28 26 26 27 28 29 31 32 34 35 37 38 39 41 41 41 39 38 43 45 43 45 45 42 40 37 33 30 27 23 17 9 4 9 15 22 27 31 33 34 36 38 39 41 42 44 46 48 50 51 52 53 55 56 57 58 58
37 37 36 35 34 33 32 31 30 30 29 28 27 27 27 28 28 28 28 26 27 28 29 28 28 27 25 27 29 27 26 25 25 26 27 28 29 30 32 34 34 36 38 38 39 38 35 35 35 37 38 41 45 44 43 46 45 43 40 35 32 29 23 16 8 4 9 15 20 22 23 25 28 31 32 34 36 38 40 42 45 47 49 51 53 56 58 59
36 36 36 36 36 35 34 33 33 32 31 30 29 28 28 28 27 27 26 26 27 28 27 27 27 26 26 28 26 24 24 25 25 26 27 28 29 30 31 32 33 35 36 35 35 34 32 32 30 30 34 39 42 42 44 47 46 45 45 42 40 38 35 30 22 15 10 7 9 12 13 15 19 22 23 25 28 29 31 33 36 39 42 45 47 50 53 56
34 34 34 34 35 35 34 34 33 32 32 31 30 29 28 27 26 27 25 25 27 27 26 27 26 24 25 25 23 22 23 24 25 26 27 27 27 29 31 31 32 32 30 31 32 33 31 28 26 30 37 40 41 42 44 43 42 43 44 44 43 41 39 36 32 27 23 19 13 8 6 7 9 13 15 17 20 22 24 27 29 32 35 38 40 42 45 48
31 32 32 32 32 32 33 32 32 32 31 30 30 29 29 28 27 27 27 27 27 25 25 24 23 23 23 23 22 22 23 25 26 27 28 28 28 30 31 32 31 28 28 32 34 34 31 28 31 38 42 42 41 41 40 39 38 39 40 40 40 41 41 40 37 35 32 28 21 16 13 10 8 7 9 11 13 15 17 20 23 26 28 31 33 35 37 40
29 29 29 29 29 29 29 29 30 30 30 29 29 29 29 29 28 28 27 26 24 23 22 21 21 22 22 22 22 22 24 26 27 27 28 28 29 31 31 31 30 28 31 34 34 33 31 33 39 42 41 41 41 39 38 36 34 34 35 36 36 38 39 39 38 36 35 32 27 25 24 21 17 13 11 9 9 9 11 14 16 19 22 24 27 29 31 32
28 28 28 28 28 27 27 27 28 28 28 28 27 27 27 26 25 25 24 23 23 22 21 22 22 22 23 22 22 23 24 26 27 28 28 29 29 30 30 30 29 30 32 33 33 33 33 37 42 41 40 41 40 37 35 33 32 32 32 32 32 34 35 35 34 34 33 32 30 30 30 27 24 21 18 15 13 12 12 12 12 12 14 17 20 22 24 25
26 27 27 27 27 26 26 26 26 26 26 26 25 25 25 24 23 23 22 22 22 23 22 23 23 24 24 24 24 25 26 26 27 27 28 28 29 29 30 29 30 31 31 31 32 32 34 38 40 39 40 39 36 35 33 32 31 30 30 30 30 32 31 30 31 30 29 29 29 29 28 27 25 24 22 21 19 18 17 16 15 14 13 13 14 15 16 18
25 25 25 26 26 25 25 25 25 24 24 24 23 23 23 22 22 22 22 22 22 22 23 23 23 23 24 25 25 25 26 26 26 27 27 28 29 29 30 29 30 30 30 31 31 32 34 37 38 38 37 36 35 33 31 30 30 29 28 28 28 28 27 27 27 26 25 25 25 25 24 23 22 21 21 20 19 19 18 17 17 16 15 14 14 13 14 14
23 23 24 24 24 24 24 24 24 24 23 23 23 22 22 21 21 20 20 21 21 21 22 22 22 22 23 24 25 25 25 25 26 26 27 27 29 29 29 29 30 30 30 31 31 32 33 35 36 36 35 34 33 30 29 29 29 28 27 26 26 25 25 25 24 23 23 22 22 21 20 20 19 18 17 17 17 17 18 17 17 16 15 15 16 16 16 16
20 21 21 22 22 22 22 23 23 23 23 23 22 22 21 21 21 20 20 20 21 21 21 22 22 22 23 23 24 24 24 25 25 25 26 27 28 28 28 29 29 30 30 30 30 30 31 33 34 33 33 33 31 29 28 29 28 27 27 26 25 25 24 23 22 22 21 21 20 18 18 18 17 16 16 15 15 16 16 16 15 15 16 17 17 17 17 17
19 19 19 20 20 20 20 21 21 21 21 22 22 21 21 21 21 21 20 19 20 21 21 22 23 23 23 23 23 23 24 25 26 26 27 27 27 27 28 29 29 29 29 29 29 29 30 31 31 31 31 30 29 28 28 28 28 27 26 26 25 25 24 22 21 20 19 19 18 17 17 16 16 16 16 16 16 16 16 16 16 18 18 19 19 19 19 19
18 18 18 18 19 19 19 19 20 19 20 20 21 21 21 21 20 20 20 19 20 21 20 20 22 22 23 23 23 23 23 24 25 26 27 27 27 27 27 28 28 29 28 28 28 28 28 28 28 28 28 28 27 26 28 28 27 27 26 25 25 24 23 22 20 19 18 18 18 18 17 17 17 16 16 17 17 16 16 18 19 20 21 22 22 22 22 23
17 18 18 18 18 18 18 18 18 19 19 19 19 20 20 20 20 20 20 20 20 21 20 20 21 21 22 23 23 23 23 23 23 24 25 25 26 27 27 26 26 27 27 27 27 27 27 26 26 26 26 26 25 26 26 26 26 26 25 25 24 23 22 22 21 20 18 17 17 18 18 19 19 19 18 19 19 19 18 19 20 20 22 23 25 26 27 28
17 17 17 18 18 19 19 19 18 18 18 18 18 19 19 20 20 20 21 20 20 21 21 21 21 22 22 22 23 23 23 23 23 23 23 24 25 26 26 26 26 26 26 25 25 26 25 25 24 24 24 23 24 24 24 25 25 24 24 24 23 22 21 21 21 20 19 17 16 18 18 19 20 20 20 22 23 23 21 20 21 22 23 24 26 28 30 31
17 17 17 18 18 19 19 19 19 19 19 19 19 19 19 20 20 20 21 21 21 21 21 22 22 22 22 22 23 23 23 23 23 23 23 23 23 24 24 25 25 26 26 25 25 25 24 24 24 24 23 23 23 23 22 22 22 23 23 23 22 21 20 19 18 18 19 18 17 18 19 18 20 20 21 23 24 25 25 23 23 24 25 26 27 28 30 32
16 17 18 18 19 19 19 19 20 20 19 19 20 20 20 20 20 21 21 22 22 22 21 21 22 22 22 22 23 23 23 23 23 22 22 22 22 22 22 23 24 25 26 26 26 25 24 24 24 24 23 23 23 22 21 21 21 21 22 22 21 20 19 18 17 17 18 18 17 18 19 20 21 20 21 22 23 24 25 24 24 25 27 28 30 31 32 33
16 17 17 18 19 19 19 20 20 20 20 20 20 20 21 21 21 21 21 22 22 22 22 22 21 21 21 22 22 23 23 23 24 23 22 22 21 21 20 21 22 23 24 25 26 26 25 24 24 24 24 23 22 22 21 21 20 20 20 20 19 20 19 18 17 16 15 17 18 18 19 21 22 22 22 23 23 22 23 23 24 25 26 28 30 32 33 34
15 16 17 18 19 19 20 20 21 21 21 21 21 21 21 21 21 21 21 21 22 22 22 22 22 21 21 21 21 22 22 23 24 24 24 23 22 22 21 21 21 21 22 23 24 25 25 24 24 24 24 25 23 23 22 21 21 20 20 19 18 19 20 18 17 16 14 15 17 18 20 21 23 24 24 24 24 23 23 24 24 25 26 27 29 30 32 33
16 17 18 18 19 20 20 21 21 21 22 22 22 22 22 22 21 22 22 22 22 22 22 22 22 22 21 21 21 22 22 23 24 25 25 25 24 23 22 21 21 21 21 22 23 25 25 25 24 23 23 24 25 25 24 23 23 23 22 22 20 20 20 20 18 17 15 14 15 18 20 21 24 26 27 27 27 26 27 27 28 29 29 30 31 31 33 34
18 19 20 21 21 22 22 23 23 23 23 23 23 23 23 23 23 23 23 23 23 23 23 22 22 22 21 21 20 21 22 23 24 25 26 26 26 25 24 23 22 22 21 22 23 24 25 25 25 24 23 23 24 25 25 25 25 25 24 24 23 22 22 22 21 19 17 15 14 17 20 22 25 28 30 30 30 30 31 31 32 32 33 34 34 35 36 38
21 22 22 23 23 23 24 25 25 25 25 25 24 24 24 24 24 23 24 24 23 24 24 24 23 23 23 22 21 21 22 23 24 25 26 26 27 27 27 25 24 24 24 23 23 24 26 26 26 25 24 24 24 25 26 25 25 26 26 26 26 25 25 25 24 23 22 18 16 17 20 22 27 30 31 32 33 34 35 35 36 36 37 38 39 40 42 43
23 24 24 25 25 25 26 26 26 27 27 27 26 26 25 25 24 24 25 25 25 25 25 25 25 25 25 24 23 22 23 23 24 25 26 26 27 28 29 28 27 26 26 26 25 25 26 27 28 27 25 25 25 25 27 27 26 25 27 27 27 27 27 27 28 28 27 24 20 18 20 22 28 32 33 33 34 36 38 38 39 40 41 43 43 44 46 47
25 25 26 26 26 26 26 26 27 27 28 28 28 27 26 26 25 25 25 26 26 26 26 27 27 27 27 27 25 24 24 25 25 26 27 27 28 29 30 30 29 28 28 28 28 27 26 27 29 29 27 26 25 25 27 29 28 26 27 28 28 28 28 28 29 29 30 30 27 22 21 23 30 33 34 34 36 38 40 40 41 42 43 45 46 47 48 50
25 25 25 26 26 26 26 26 27 27 27 28 28 28 28 27 27 26 26 26 27 27 27 28 28 29 30 30 29 28 26 26 27 27 28 29 29 30 30 31 31 30 30 30 29 29 27 27 28 30 29 28 27 26 27 30 31 28 28 29 29 29 29 29 29 29 31 32 32 28 23 23 33 36 35 36 38 40 42 42 43 44 45 46 48 49 50 53
25 25 25 25 25 26 26 26 26 26 27 27 28 28 28 28 28 27 27 27 27 27 28 29 30 31 32 32 32 31 30 29 29 29 30 30 30 31 31 32 33 32 31 31 31 30 29 28 28 29 30 29 28 27 27 30 32 31 29 30 31 31 30 31 31 31 31 31 33 33 26 24 33 38 37 38 40 42 43 44 45 46 47 49 50 51 53 55
26 26 26 26 26 26 26 26 26 26 26 26 27 28 28 29 28 28 28 28 28 28 29 29 30 31 32 33 34 34 34 32 31 31 31 31 32 32 32 33 34 34 33 32 32 32 31 29 29 29 30 30 29 29 29 30 32 32 31 31 33 32 31 32 33 33 33 31 33 36 30 26 34 38 37 40 43 43 44 45 47 48 49 51 52 53 55 56
27 27 27 27 27 27 27 27 27 27 26 27 27 28 28 29 29 29 29 29 29 29 29 30 30 31 32 34 35 36 36 35 33 32 32 32 33 33 33 34 34 35 35 34 34 34 33 32 30 29 30 31 30 30 30 31 32 33 33 33 35 35 33 33 34 36 35 31 33 37 33 30 35 38 38 42 44 44 45 46 48 49 50 51 53 54 56 58
28 28 28 29 28 28 28 28 28 27 27 27 28 28 29 29 29 30 29 30 30 30 30 30 31 31 32 33 35 36 37 36 35 34 33 33 33 34 34 34 35 36 37 37 36 36 35 34 33 32 31 31 31 30 31 31 33 34 34 35 37 38 37 35 35 38 38 35 35 37 35 33 36 39 40 43 44 44 46 48 49 50 51 52 54 56 58 61
30 30 30 30 30 30 29 29 28 28 28 28 29 29 29 29 30 30 30 30 30 31 31 31 31 32 32 33 35 36 37 37 36 35 35 34 34 34 34 35 36 37 38 38 39 38 37 36 36 35 35 34 33 33 33 33 34 35 35 36 38 40 40 37 38 39 40 40 38 36 38 37 35 38 43 44 45 45 46 48 50 52 53 55 56 58 61 63
31 31 31 31 31 31 30 30 30 29 29 29 29 29 30 30 30 30 30 30 31 31 31 32 32 32 33 34 35 36 38 38 37 36 36 36 35 35 35 35 36 37 38 39 40 40 39 38 38 37 36 37 36 35 34 34 36 37 36 36 39 42 41 40 40 39 42 45 40 36 42 40 35 39 45 46 46 48 48 50 51 53 55 57 59 61 63 65
31 31 31 31 32 32 32 31 31 31 30 30 30 30 31 31 31 31 31 31 31 32 32 32 32 33 33 35 35 37 38 39 38 37 37 37 36 36 36 36 36 38 39 39 41 42 41 40 40 38 37 38 38 36 36 36 37 39 38 37 40 42 42 41 41 40 44 47 43 40 45 43 38 42 46 46 48 50 51 52 53 54 56 58 61 63 65 67
31 31 32 32 33 33 33 33 33 32 32 31 31 31 32 32 32 32 32 32 32 33 33 32 33 33 34 35 36 37 39 39 38 37 37 38 38 37 37 36 37 38 39 40 41 43 43 42 41 40 39 39 40 38 37 36 38 40 39 39 41 43 43 42 40 41 45 48 45 45 47 45 42 45 47 47 51 53 53 54 54 55 58 61 63 65 67 69
31 32 32 32 33 33 34 34 34 34 34 33 32 32 33 33 33 33 33 33 33 33 33 33 33 34 34 36 37 38 39 40 40 38 37 38 39 38 38 37 37 38 39 40 41 43 44 43 43 42 39 39 41 40 38 37 38 40 40 41 43 44 44 43 41 41 46 48 47 48 50 46 45 49 49 49 52 55 55 56 56 57 60 64 67 68 70 72
32 32 32 32 33 33 34 35 35 35 35 34 33 34 35 34 34 33 33 33 34 34 33 33 33 34 35 36 37 38 39 40 41 39 38 39 40 40 39 38 38 39 39 40 41 43 45 45 44 44 41 39 41 41 39 38 39 41 42 43 44 46 45 43 41 41 45 47 48 51 51 47 46 50 52 52 54 56 57 58 58 60 63 67 69 71 73 75
34 33 33 33 33 34 35 35 35 35 35 34 35 36 36 35 34 33 32 33 34 34 34 34 34 35 35 37 38 38 39 40 41 40 39 39 40 41 41 40 39 40 41 42 42 44 46 46 45 46 44 41 41 42 40 38 39 42 44 43 44 46 45 43 41 40 44 48 49 52 52 49 49 51 53 54 57 59 61 61 61 62 66 69 71 73 75 77
36 35 34 34 34 35 35 35 35 35 35 35 36 37 37 36 34 32 32 32 33 34 35 35 35 36 36 37 38 38 39 40 41 40 39 40 40 41 41 41 40 41 42 43 44 45 47 47 46 47 46 43 42 43 42 40 39 41 44 44 46 47 46 43 40 40 44 48 51 52 52 51 52 53 53 55 58 61 63 63 62 65 69 71 73 75 78 80
Wind_Direction
38 41 43 48 46 37 24 14 12 14 13 9 5 359 353 351 346 343 342 341 341 341 341 341 341 339 338 337 335 333 329 325 321 316 313 312 308 303 300 296 293 290 287 283 277 273 271 268 265 263 261 258 257 255 254 253 251 250 248 247 246 245 245 244 244 244 244 244 244 243 242 239 238 238 237 238 241 243 244 244 241 239 241 246 249 252 253 254
37 40 43 45 43 32 17 7 4 4 0 358 354 349 347 344 341 341 339 338 338 338 338 339 339 338 338 338 337 335 332 328 323 318 315 314 310 306 304 300 296 293 291 288 282 277 273 270 267 265 263 261 258 256 253 252 250 249 248 247 246 246 245 244 244 244 244 244 244 243 242 240 239 239 239 238 239 240 242 243 244 243 243 245 247 248 251 254
30 32 34 34 30 21 10 3 359 356 354 351 349 347 346 343 342 341 340 340 339 338 339 338 337 338 338 338 339 339 338 337 335 332 327 323 319 316 311 306 302 297 293 290 287 282 277 272 268 265 262 260 259 256 253 251 249 248 247 246 245 245 244 244 243 243 243 243 243 243 241 240 239 240 240 238 238 239 240 241 242 242 243 245 247 245 247 252
22 22 22 20 15 9 3 358 355 353 351 350 349 348 346 345 344 342 341 341 340 340 339 338 338 337 337 340 343 344 344 343 343 340 335 334 331 328 323 318 312 306 299 294 290 285 280 276 272 267 263 260 257 256 254 251 249 248 247 246 244 243 243 242 242 242 242 243 243 243 242 240 238 238 238 239 238 238 239 240 240 240 241 242 245 243 242 247
19 20 17 15 11 7 3 359 356 354 353 352 352 351 350 348 346 345 344 343 342 341 340 339 338 337 340 345 348 349 348 350 355 352 348 346 341 338 334 330 326 320 313 305 298 291 285 280 275 270 265 261 258 255 253 251 250 248 246 245 244 243 242 241 240 240 241 242 242 243 242 240 238 236 236 237 237 237 237 238 240 240 240 240 243 242 240 242
17 19 18 17 15 12 9 5 2 360 357 357 355 353 352 351 350 349 346 345 344 342 342 341 339 341 346 351 356 357 359 3 4 2 358 355 350 348 346 344 341 335 330 323 314 306 298 289 281 275 270 265 260 257 254 251 250 248 246 245 243 242 241 240 239 239 239 241 241 242 243 241 239 236 235 235 235 236 237 239 241 241 241 241 242 243 241 241
12 16 17 18 18 15 13 10 6 2 359 358 356 355 355 354 353 350 348 347 345 344 344 342 344 349 354 0 4 6 12 11 9 9 5 2 1 360 357 355 350 344 341 334 324 314 305 297 287 278 272 267 262 258 255 252 251 249 247 245 243 241 240 239 238 238 237 239 241 241 242 242 241 239 236 235 235 237 239 240 242 243 243 242 243 243 242 242
11 14 16 17 19 17 14 11 6 2 1 1 1 360 359 358 355 352 350 348 347 347 346 348 357 2 2 5 7 15 21 19 18 17 12 10 10 7 4 2 360 358 357 350 340 326 314 304 295 288 279 270 262 256 252 250 248 247 247 246 245 243 242 240 239 238 236 237 239 240 241 241 241 239 238 237 238 239 241 241 242 243 244 244 244 244 243 243
20 21 23 25 25 23 20 15 11 9 8 7 7 6 4 1 359 357 354 353 352 351 356 6 13 12 13 17 24 30 30 29 28 23 19 19 17 14 14 17 18 17 14 10 7 360 347 323 304 294 285 280 271 260 253 248 246 244 244 245 245 245 244 243 240 239 237 237 238 239 239 239 239 239 239 239 239 240 241 242 243 244 245 246 246 245 245 244
41 39 39 39 39 36 31 27 23 20 18 16 14 11 9 6 5 4 3 1 2 6 16 21 22 27 33 39 44 42 37 35 32 28 27 27 26 27 31 32 30 29 26 25 27 30 28 18 358 327 302 300 291 275 263 255 251 247 245 245 245 244 244 243 242 240 239 238 238 239 238 238 239 239 239 240 240 241 241 241 242 244 245 245 246 246 246 246
58 56 55 54 53 50 47 43 38 34 30 27 24 20 18 18 20 19 18 18 22 26 28 30 36 42 44 49 50 44 41 39 37 37 37 37 37 39 41 39 36 34 32 33 36 38 35 32 28 16 354 341 329 311 291 273 263 256 252 249 247 246 245 243 243 242 242 241 241 242 242 241 241 239 238 239 240 240 241 241 241 243 244 245 246 247 248 248
64 64 64 64 62 61 59 55 51 48 44 40 37 36 36 37 36 34 36 39 41 41 42 46 51 53 55 56 52 45 45 46 47 50 48 45 43 42 43 42 38 35 35 35 38 40 37 34 32 28 27 28 22 12 354 324 294 272 261 256 252 249 247 244 242 243 243 243 242 244 245 245 244 242 240 241 241 242 242 242 242 243 244 246 247 248 249 250
64 66 66 67 66 66 65 63 61 59 55 53 50 50 50 49 48 48 51 52 52 52 53 57 57 58 59 59 55 54 56 58 59 59 53 46 41 40 42 42 38 35 35 35 38 41 40 38 37 37 44 45 40 34 34 30 19 350 298 269 258 253 250 247 244 243 244 244 243 244 246 247 247 246 245 244 244 244 244 244 244 244 246 247 249 250 250 251
61 63 65 66 66 66 66 66 66 65 63 62 60 59 58 56 57 59 59 59 59 60 61 62 62 61 61 62 64 66 66 65 63 59 52 44 40 40 41 39 37 34 33 34 37 38 39 40 38 42 49 49 44 42 44 42 37 35 26 358 288 262 254 252 248 246 246 245 244 247 248 248 248 249 249 249 249 249 248 248 247 247 247 248 250 251 252 252
59 61 62 63 64 65 66 66 67 67 66 66 65 64 64 64 65 65 65 65 66 68 68 67 67 67 68 69 71 70 66 63 59 55 49 43 41 40 40 39 36 34 33 32 34 34 35 35 33 39 47 49 48 48 51 50 46 45 42 38 26 337 276 262 256 252 252 249 247 249 252 251 251 251 252 252 253 253 252 252 252 250 249 250 250 251 252 252
59 60 61 62 63 63 64 64 65 66 66 67 68 69 69 69 69 69 70 71 73 73 72 72 71 72 74 73 70 67 64 61 58 52 47 44 41 40 40 39 35 34 34 32 33 34 31 29 28 36 44 47 49 48 49 52 49 47 46 44 43 39 28 320 272 263 261 257 252 252 255 256 256 256 255 255 255 256 256 256 255 255 253 252 252 253 253 253
60 60 60 61 62 62 63 63 63 63 64 65 67 68 69 70 71 72 73 74 75 74 74 75 73 73 72 67 65 65 62 59 55 51 47 43 40 39 39 39 35 34 33 31 33 34 29 26 28 36 43 46 50 48 47 50 48 46 46 45 48 48 46 45 32 328 284 271 263 262 262 261 261 260 260 259 258 258 259 259 259 258 258 256 255 255 255 255
60 60 60 60 60 61 61 62 62 62 61 62 63 64 65 66 68 71 73 74 75 75 75 74 72 70 66 63 63 61 57 54 51 48 45 41 39 38 39 38 36 34 32 30 32 33 26 24 28 37 44 47 49 47 46 48 46 45 45 44 46 47 46 47 46 46 36 358 309 286 276 269 265 265 264 262 261 260 260 260 260 261 261 261 260 259 258 258
61 61 60 60 59 59 59 60 61 61 60 60 60 62 63 64 65 67 68 68 68 68 67 67 66 65 62 61 60 55 51 49 47 45 42 39 35 36 37 36 37 34 30 31 34 34 27 24 30 38 43 44 44 44 44 46 47 46 46 45 46 48 48 47 47 49 49 39 19 352 326 302 285 277 274 272 269 266 264 263 263 263 263 264 264 263 262 261
59 59 60 59 59 58 58 58 59 60 59 59 57 57 58 57 57 57 57 58 60 59 59 61 61 59 56 54 51 47 45 42 41 39 36 34 31 31 32 32 32 30 28 31 35 34 29 27 34 38 39 40 40 41 41 42 45 46 47 46 46 48 49 49 48 49 51 48 38 35 35 23 2 332 311 298 288 282 278 275 273 272 270 270 269 268 267 265
55 56 57 57 57 57 57 56 57 57 57 56 55 54 53 52 50 48 49 51 52 53 54 53 52 52 49 47 45 41 39 37 36 33 30 28 27 26 27 26 24 25 28 29 30 30 29 32 37 38 38 38 37 36 36 36 40 44 46 46 46 47 48 50 50 50 52 53 48 48 49 45 38 28 13 354 332 316 307 300 295 290 286 282 280 279 276 273
51 52 52 53 53 53 53 52 53 53 53 53 52 51 52 52 49 47 46 45 44 44 43 41 41 42 41 39 37 35 33 32 30 27 24 23 22 21 22 22 21 23 24 24 24 25 30 35 38 37 37 38 35 33 32 32 33 38 43 44 45 47 48 48 50 50 52 52 49 50 51 49 46 43 39 32 24 16 6 355 342 325 312 304 298 294 291 287
48 48 48 48 48 48 47 46 47 47 47 48 47 46 47 48 46 44 42 39 39 39 37 35 34 33 33 30 29 29 27 26 24 21 19 18 17 18 18 18 18 19 19 21 23 25 29 33 35 35 36 37 35 32 30 29 29 32 37 39 40 43 43 44 46 47 49 51 50 50 51 49 46 43 40 38 35 32 30 26 19 9 357 344 331 320 312 305
45 45 44 44 44 43 43 42 41 40 40 41 41 40 39 40 40 38 35 31 31 34 33 31 30 29 28 25 23 23 21 21 19 16 14 14 14 15 14 15 16 17 19 23 26 25 27 29 31 32 32 33 34 31 30 30 28 28 32 34 37 38 38 38 39 40 42 46 48 49 50 49 47 43 39 35 33 31 29 27 24 19 13 6 0 353 344 335
40 41 40 41 40 40 39 38 37 35 34 35 35 33 32 31 31 32 31 25 24 28 29 28 26 26 24 21 19 18 17 16 15 12 11 11 12 12 12 13 14 15 18 21 20 21 24 27 28 27 27 29 30 28 31 34 32 30 29 30 32 34 34 34 34 32 32 35 39 41 42 42 41 39 36 32 28 26 24 21 17 12 7 3 2 360 356 350
35 35 35 35 35 36 34 34 34 31 29 30 29 27 26 25 23 24 25 21 19 22 23 21 21 21 20 17 15 13 12 12 10 9 9 11 11 10 10 11 12 14 16 16 16 18 22 24 25 24 25 27 25 22 27 33 34 33 32 30 29 29 29 29 30 27 24 24 26 28 30 30 28 26 24 21 18 17 15 12 7 2 360 357 355 354 351 346
28 28 28 27 28 29 28 29 29 26 25 24 23 22 21 20 18 19 18 16 16 18 17 14 14 16 13 11 10 8 9 10 8 7 9 9 8 8 9 9 10 11 12 13 13 15 19 20 21 21 22 22 19 18 23 28 31 33 34 32 30 28 25 25 26 23 18 15 15 14 15 16 13 10 9 7 4 3 359 357 355 353 352 350 347 344 342 338
22 21 20 19 19 20 20 21 20 20 20 18 17 16 15 14 13 12 12 10 11 13 11 8 8 9 5 4 4 3 7 9 7 7 7 5 5 6 7 6 5 6 7 8 9 11 15 16 16 17 19 19 17 19 23 24 26 29 30 31 32 30 25 22 22 20 13 8 5 2 2 3 1 358 357 355 352 349 346 344 345 345 343 341 338 337 335 333
16 15 14 12 11 11 11 11 11 12 12 11 10 10 8 7 6 5 5 6 5 5 4 3 3 1 359 358 357 359 4 5 4 6 6 4 4 5 5 4 4 4 3 3 5 8 10 12 13 16 18 18 18 20 21 19 21 23 24 27 30 29 25 20 18 16 11 4 359 354 351 353 355 352 348 345 343 341 339 336 335 335 334 333 332 331 331 329
7 7 6 6 4 3 3 2 2 3 3 2 2 2 1 0 359 357 357 358 359 358 358 358 358 357 356 354 354 356 359 359 1 4 5 6 6 4 4 3 3 3 1 360 1 3 5 6 9 12 15 16 17 20 18 16 18 20 22 24 25 25 24 21 17 12 7 5 358 349 347 347 349 350 346 342 341 339 337 332 328 326 325 326 327 326 325 325
358 358 358 358 357 357 356 355 355 355 355 354 354 354 354 353 353 351 350 352 352 352 353 354 353 354 353 352 352 351 352 353 355 359 3 5 7 6 5 3 1 0 359 358 357 357 359 2 3 4 7 10 14 17 16 14 14 16 18 18 18 19 19 19 19 12 3 2 358 349 345 343 344 347 345 342 342 340 337 333 327 323 322 321 321 320 320 320
353 352 352 352 351 350 349 348 348 348 348 348 348 348 347 347 348 347 346 348 347 346 348 349 349 350 350 350 349 347 347 347 348 352 354 357 0 4 5 4 1 359 358 356 354 354 354 355 356 356 358 1 5 9 10 9 9 10 9 6 7 11 14 16 20 15 2 356 355 347 342 340 340 342 341 342 344 341 337 332 328 325 322 320 319 318 318 318
349 348 348 348 347 346 345 344 343 343 342 342 342 342 342 342 342 342 342 342 341 342 343 343 344 345 346 346 345 345 345 344 344 346 347 349 353 357 1 5 4 2 358 354 353 352 350 349 349 350 351 352 355 358 1 2 3 4 1 359 1 5 10 16 18 18 8 353 347 343 339 335 334 336 337 339 342 340 334 329 326 323 320 319 319 318 317 316
341 342 342 342 342 341 340 340 340 339 339 339 338 337 336 336 336 335 336 336 336 338 339 339 340 341 342 342 342 342 342 342 342 342 342 344 347 350 354 359 2 3 359 354 351 349 348 347 344 344 345 345 347 349 352 355 357 358 357 355 358 359 0 5 7 11 11 356 342 337 335 330 327 331 334 335 337 335 330 327 324 320 318 316 315 314 313 312
328 330 332 332 333 332 332 333 334 334 335 335 334 334 332 331 330 330 330 331 331 333 334 335 336 337 338 339 339 339 339 340 339 339 339 339 341 343 344 347 352 357 358 355 351 346 345 345 342 339 338 338 341 342 344 347 350 351 351 350 352 352 350 352 353 356 1 357 344 333 328 324 321 326 331 335 336 332 329 327 324 321 319 315 313 312 310 309
317 320 322 324 325 325 325 326 327 327 328 328 329 329 329 328 327 326 325 325 326 327 328 330 331 332 334 335 336 335 336 337 337 337 337 336 336 337 337 339 342 346 350 352 350 346 342 340 339 339 335 331 333 335 337 340 342 343 344 344 345 345 344 342 341 342 346 352 349 334 326 322 318 321 329 335 335 331 328 326 324 322 319 316 314 312 310 309
309 311 315 317 319 320 320 320 321 321 321 322 322 323 324 324 323 322 321 321 321 321 322 324 325 326 327 330 331 332 332 334 334 335 335 334 334 333 333 334 335 338 341 343 346 345 341 337 335 337 336 329 326 327 329 332 335 336 337 338 339 339 339 336 334 334 335 341 346 337 328 321 313 314 324 332 330 327 326 325 325 323 320 318 316 314 314 313
303 306 309 311 314 316 316 316 317 316 316 317 317 318 318 319 319 319 319 318 317 317 317 317 318 320 321 323 325 327 328 330 331 332 333 334 333 330 330 331 332 334 334 336 339 340 339 337 333 333 335 331 326 322 322 324 328 330 331 331 333 334 334 332 331 331 330 332 337 337 332 321 309 310 320 326 326 323 324 325 325 323 320 318 316 315 315 314
300 302 304 307 310 311 312 313 313 314 313 313 313 313 314 315 315 315 315 315 315 314 313 313 313 314 315 316 318 320 322 324 326 327 328 330 331 330 329 329 329 330 330 330 333 335 337 335 331 331 331 331 328 322 318 317 321 325 324 324 326 327 328 327 327 327 326 326 327 333 338 322 307 310 320 323 322 321 323 324 323 321 319 316 315 315 313 312
298 299 301 304 307 308 309 310 311 312 311 310 310 310 310 311 311 311 311 312 312 311 311 310 310 310 310 312 313 314 316 318 320 321 322 324 325 327 327 327 327 327 327 327 328 330 333 333 331 329 328 329 328 324 319 314 314 318 319 319 319 321 323 323 322 322 322 322 321 325 337 324 308 313 321 320 319 320 322 323 321 319 317 315 314 313 312 312
299 300 301 303 304 305 306 308 310 310 310 309 308 307 307 308 308 308 309 309 309 309 309 309 309 308 308 309 310 311 312 314 315 316 318 319 319 321 322 323 324 325 325 324 324 326 328 330 330 328 325 325 325 324 320 314 311 311 313 315 314 316 318 318 319 319 319 321 317 318 329 324 310 315 320 317 317 319 321 321 319 317 316 314 314 313 312 311
299 300 300 302 303 304 305 307 308 308 309 308 307 306 306 305 305 306 306 307 307 308 308 308 307 307 307 308 308 309 310 311 313 313 314 315 315 316 317 317 319 320 321 321 321 322 324 326 327 326 323 322 322 323 321 317 312 308 308 310 309 310 313 314 316 316 316 319 315 313 322 320 311 315 317 314 316 319 319 318 317 317 316 314 312 311 310 309
298 299 300 301 302 303 305 306 307 308 308 307 307 306 306 305 304 304 304 305 305 306 306 306 306 306 306 307 307 308 308 310 311 311 312 312 313 313 314 313 314 315 316 317 317 318 320 321 322 322 321 320 320 321 319 318 314 308 305 306 306 307 309 312 312 312 314 316 312 312 317 316 313 315 314 313 316 318 317 315 316 317 315 312 311 310 309 309
296 297 299 300 302 303 304 305 306 307 308 308 308 307 306 306 305 304 303 303 303 303 304 304 304 304 305 305 306 306 307 308 310 311 311 311 312 312 312 312 312 312 313 314 315 315 316 317 319 319 319 318 317 318 317 317 314 309 306 305 304 304 307 309 310 310 311 310 310 312 312 312 315 313 310 312 316 317 315 314 315 315 314 312 311 310 310 309
295 296 297 299 300 302 303 304 304 305 306 307 308 307 307 307 306 305 303 302 301 301 302 302 302 302 303 303 303 304 305 306 309 310 311 311 311 311 312 311 311 311 311 312 313 313 313 315 316 317 318 317 317 317 317 318 315 311 307 305 304 303 305 307 308 309 307 306 310 311 308 312 318 311 309 314 315 314 314 314 315 315 314 313 312 311 310 310
294 295 296 297 299 300 302 302 302 303 304 305 306 306 306 306 306 305 303 301 300 299 299 299 300 301 300 300 300 301 302 304 307 309 310 311 311 310 310 310 310 310 310 310 311 311 312 313 313 314 316 315 315 315 316 317 315 311 307 304 303 302 304 305 307 307 305 305 311 311 306 312 318 309 308 314 313 312 314 314 315 315 314 313 312 311 311 312
292 294 295 296 297 298 300 300 300 301 301 301 302 303 305 306 305 304 303 300 299 298 297 298 299 299 298 298 299 300 300 302 305 307 308 309 309 309 309 309 309 309 310 310 311 310 311 311 311 313 314 313 312 313 314 315 314 310 307 303 301 301 302 304 306 306 304 304 310 309 306 312 315 309 310 314 312 312 314 315 316 316 315 313 312 312 313 314
290 291 293 295 296 297 298 298 299 300 300 300 299 300 303 304 304 303 301 299 298 297 298 298 298 298 298 298 299 299 299 301 302 304 306 306 307 308 308 308 309 309 309 310 310 310 310 311 310 312 313 312 310 310 312 313 312 309 306 302 301 300 301 303 305 305 303 304 308 307 307 312 313 309 311 314 312 313 314 315 316 316 315 313 313 314 316 316
287 289 291 293 294 296 297 298 298 299 300 299 298 298 301 302 302 302 300 299 298 298 298 298 298 299 299 299 299 299 300 301 302 303 303 304 305 306 307 307 307 307 308 309 309 309 309 310 310 311 311 310 308 308 311 311 310 308 305 303 302 302 302 303 304 304 302 304 307 306 308 313 312 310 312 314 313 313 314 315 317 317 315 314 315 317 318 318
286 287 289 291 293 294 295 296 297 299 299 298 297 298 299 301 300 300 299 298 297 297 298 298 298 299 300 299 299 300 301 301 302 304 304 303 302 303 304 304 305 305 306 307 308 308 308 309 310 310 311 309 307 307 309 311 310 308 305 303 303 303 302 303 304 303 302 304 306 306 308 312 311 310 313 315 314 314 315 316 318 318 317 316 318 319 319 319
284 285 287 288 291 293 293 294 296 298 298 298 299 299 299 299 299 299 298 298 297 298 298 298 299 300 300 300 300 302 302 302 303 305 305 304 302 301 301 302 303 304 305 306 307 307 306 308 309 310 311 310 307 307 309 309 309 308 305 303 302 303 303 303 303 304 303 304 305 306 308 312 311 310 313 315 314 315 316 318 321 320 318 318 320 320 320 321
283 284 285 286 290 292 292 293 295 295 295 298 299 299 298 297 298 298 297 297 298 297 298 298 299 300 300 300 301 302 302 303 304 306 307 306 305 302 300 300 301 302 304 305 306 307 306 307 309 309 310 309 308 308 309 309 309 308 305 303 304 304 305 304 303 305 305 304 305 306 309 311 310 311 313 315 315 316 318 320 322 320 319 320 321 321 322 322
Height
5797 5797 5796 5796 5796 5796 5795 5795 5794 5794 5793 5793 5793 5792 5792 5791 5791 5790 5789 5788 5787 5786 5785 5784 5782 5781 5780 5778 5777 5775 5774 5773 5772 5771 5771 5770 5769 5768 5767 5767 5767 5766 5765 5764 5764 5764 5764 5765 5765 5766 5767 5768 5768 5769 5770 5771 5772 5772 5774 5775 5776 5778 5780 5782 5783 5785 5788 5790 5793 5794 5795 5795 5793 5794 5797 5798 5798 5798 5798 5800 5801 5802 5803 5802 5803 5804 5804 5806
5797 5797 5796 5796 5796 5796 5795 5795 5794 5794 5793 5793 5792 5792 5791 5791 5790 5789 5788 5787 5786 5785 5784 5782 5781 5780 5778 5777 5775 5773 5772 5771 5770 5770 5769 5768 5767 5766 5765 5764 5764 5763 5762 5760 5759 5759 5760 5760 5761 5761 5761 5762 5762 5763 5764 5765 5766 5766 5768 5769 5771 5773 5775 5777 5779 5781 5783 5785 5788 5789 5790 5790 5788 5789 5792 5793 5793 5793 5794 5794 5796 5797 5797 5797 5798 5801 5801 5802
5797 5797 5797 5796 5796 5796 5795 5795 5794 5794 5793 5793 5792 5791 5791 5790 5789 5788 5787 5786 5785 5784 5783 5781 5780 5779 5778 5776 5774 5772 5771 5769 5769 5768 5768 5767 5765 5764 5763 5762 5761 5760 5759 5758 5756 5755 5754 5755 5756 5756 5756 5756 5757 5757 5758 5759 5759 5761 5763 5764 5765 5767 5769 5772 5774 5776 5777 5779 5782 5783 5785 5785 5784 5785 5786 5788 5788 5788 5789 5789 5790 5790 5791 5792 5794 5797 5799 5799
5797 5797 5796 5796 5796 5796 5795 5795 5794 5794 5793 5793 5792 5791 5790 5789 5788 5788 5787 5785 5784 5783 5782 5781 5779 5778 5776 5775 5773 5772 5770 5769 5769 5768 5767 5765 5764 5762 5761 5759 5758 5757 5756 5754 5753 5751 5750 5750 5750 5750 5751 5751 5751 5751 5752 5753 5753 5756 5758 5757 5758 5761 5763 5766 5768 5770 5772 5774 5777 5778 5779 5780 5779 5779 5780 5781 5782 5783 5783 5781 5782 5783 5786 5789 5790 5793 5796 5796
5796 5796 5796 5795 5795 5795 5795 5794 5794 5793 5792 5792 5791 5790 5790 5789 5788 5787 5785 5784 5783 5782 5781 5779 5778 5777 5775 5774 5772 5771 5770 5769 5768 5767 5766 5764 5763 5761 5759 5757 5755 5753 5752 5750 5749 5747 5746 5745 5745 5745 5745 5745 5745 5745 5747 5748 5747 5750 5751 5750 5753 5755 5757 5759 5761 5765 5768 5769 5771 5772 5773 5774 5773 5773 5774 5775 5776 5775 5774 5774 5776 5779 5783 5785 5786 5788 5790 5792
5796 5795 5795 5795 5795 5794 5794 5793 5793 5792 5792 5791 5791 5790 5789 5788 5787 5786 5784 5783 5782 5781 5780 5778 5777 5775 5774 5773 5772 5770 5769 5768 5767 5766 5765 5764 5762 5760 5758 5756 5753 5751 5749 5747 5745 5743 5742 5741 5740 5740 5740 5740 5740 5740 5742 5743 5743 5744 5745 5745 5747 5749 5751 5753 5756 5761 5763 5763 5765 5765 5766 5768 5768 5768 5768 5768 5767 5765 5766 5770 5773 5775 5778 5780 5781 5783 5785 5786
5795 5795 5794 5794 5794 5794 5793 5793 5792 5792 5791 5791 5790 5789 5788 5787 5786 5785 5784 5782 5781 5780 5778 5777 5776 5774 5773 5772 5771 5770 5768 5768 5767 5766 5765 5763 5761 5759 5757 5755 5753 5750 5747 5744 5742 5739 5737 5736 5736 5736 5735 5735 5735 5735 5737 5738 5738 5739 5740 5740 5740 5743 5745 5748 5752 5755 5757 5758 5758 5759 5759 5762 5762 5761 5761 5761 5760 5759 5763 5769 5770 5771 5773 5775 5776 5778 5780 5780
5794 5794 5794 5794 5794 5793 5793 5793 5792 5791 5791 5790 5789 5789 5788 5787 5786 5784 5783 5782 5780 5779 5778 5777 5775 5774 5773 5772 5771 5770 5769 5768 5767 5766 5765 5763 5761 5759 5757 5755 5752 5749 5746 5743 5739 5736 5734 5733 5732 5731 5731 5730 5731 5730 5731 5732 5732 5733 5734 5734 5735 5738 5741 5744 5748 5750 5751 5750 5751 5752 5752 5754 5754 5753 5754 5755 5756 5756 5761 5765 5766 5767 5769 5771 5772 5773 5774 5775
5794 5794 5794 5793 5793 5793 5793 5792 5792 5791 5791 5790 5789 5788 5787 5786 5785 5784 5782 5781 5780 5778 5778 5776 5775 5774 5774 5773 5771 5770 5770 5769 5768 5767 5766 5764 5762 5760 5758 5755 5752 5748 5745 5741 5738 5734 5732 5730 5728 5728 5727 5726 5726 5726 5726 5726 5726 5727 5728 5729 5731 5734 5737 5740 5742 5743 5743 5743 5744 5743 5744 5746 5744 5746 5750 5750 5751 5753 5757 5760 5761 5763 5765 5766 5767 5768 5769 5771
5794 5793 5793 5793 5793 5793 5792 5792 5791 5791 5790 5790 5789 5788 5787 5786 5785 5784 5782 5781 5779 5778 5777 5776 5775 5774 5773 5773 5771 5770 5770 5770 5769 5768 5766 5764 5762 5761 5759 5755 5752 5748 5745 5741 5738 5734 5731 5728 5726 5725 5724 5723 5723 5723 5723 5722 5722 5722 5723 5725 5727 5730 5732 5735 5737 5738 5737 5737 5737 5734 5737 5741 5739 5743 5746 5744 5745 5747 5750 5754 5756 5758 5759 5760 5761 5762 5764 5766
5794 5794 5793 5793 5793 5793 5792 5792 5791 5791 5790 5790 5789 5788 5787 5786 5785 5783 5782 5781 5780 5778 5777 5776 5775 5774 5774 5772 5771 5772 5772 5771 5770 5768 5766 5765 5764 5762 5759 5756 5752 5748 5746 5742 5738 5733 5729 5727 5725 5724 5723 5722 5721 5720 5720 5720 5719 5719 5720 5722 5723 5725 5727 5729 5731 5731 5730 5731 5732 5730 5734 5736 5735 5738 5741 5739 5740 5742 5744 5748 5750 5752 5752 5754 5755 5757 5758 5760
5795 5795 5794 5794 5793 5793 5793 5792 5791 5791 5790 5790 5789 5788 5787 5786 5785 5783 5783 5781 5780 5779 5778 5777 5776 5776 5775 5773 5773 5774 5773 5772 5771 5769 5768 5767 5766 5763 5759 5755 5753 5750 5747 5743 5738 5733 5730 5728 5726 5724 5722 5720 5719 5719 5718 5717 5717 5716 5717 5718 5719 5720 5721 5723 5724 5724 5723 5725 5727 5729 5731 5731 5730 5733 5736 5736 5736 5737 5740 5742 5744 5746 5747 5748 5750 5752 5753 5754
5797 5796 5796 5795 5795 5794 5793 5793 5792 5791 5791 5790 5789 5789 5788 5786 5785 5785 5784 5783 5781 5780 5780 5779 5778 5778 5775 5774 5776 5776 5774 5774 5772 5770 5769 5769 5766 5763 5758 5756 5754 5752 5748 5745 5740 5735 5734 5731 5728 5727 5723 5719 5718 5717 5716 5715 5715 5714 5714 5714 5715 5715 5715 5716 5718 5719 5718 5720 5725 5727 5727 5726 5726 5728 5731 5733 5732 5734 5736 5737 5741 5742 5743 5745 5746 5747 5748 5749
5800 5799 5798 5797 5796 5796 5795 5794 5793 5793 5792 5791 5791 5790 5789 5788 5787 5786 5785 5784 5783 5783 5782 5780 5780 5778 5776 5777 5779 5777 5776 5775 5772 5770 5771 5770 5766 5763 5759 5757 5756 5753 5749 5746 5742 5739 5736 5733 5734 5732 5724 5719 5718 5717 5715 5714 5713 5713 5712 5712 5711 5711 5711 5712 5714 5716 5714 5718 5723 5722 5720 5721 5723 5724 5727 5728 5728 5730 5732 5733 5736 5739 5740 5741 5742 5743 5743 5744
5804 5803 5801 5800 5799 5798 5797 5796 5795 5795 5794 5793 5792 5791 5791 5790 5789 5788 5787 5786 5786 5785 5784 5782 5782 5780 5779 5781 5780 5778 5777 5774 5772 5773 5772 5770 5767 5764 5762 5759 5757 5754 5750 5747 5743 5739 5736 5735 5737 5731 5722 5721 5721 5719 5716 5714 5713 5713 5712 5711 5710 5709 5710 5710 5711 5712 5711 5716 5719 5716 5714 5717 5720 5723 5724 5725 5725 5726 5727 5729 5731 5733 5735 5736 5737 5737 5738 5738
5808 5807 5805 5804 5803 5802 5801 5800 5799 5798 5796 5795 5794 5794 5793 5792 5791 5790 5789 5789 5788 5787 5785 5784 5784 5782 5782 5783 5781 5778 5777 5775 5775 5775 5773 5771 5769 5767 5764 5760 5758 5755 5752 5749 5745 5742 5741 5741 5739 5731 5727 5727 5723 5721 5719 5715 5715 5714 5712 5711 5710 5709 5709 5709 5709 5709 5709 5712 5714 5712 5712 5715 5717 5719 5721 5722 5723 5723 5724 5725 5726 5727 5729 5730 5731 5731 5732 5733
5812 5811 5809 5808 5807 5805 5804 5803 5802 5801 5800 5799 5798 5797 5795 5794 5793 5792 5792 5791 5790 5789 5787 5787 5786 5785 5785 5783 5780 5779 5779 5778 5778 5776 5774 5772 5770 5767 5764 5761 5759 5756 5753 5751 5748 5747 5747 5746 5742 5737 5735 5731 5724 5725 5723 5716 5716 5715 5713 5713 5711 5709 5709 5709 5709 5709 5709 5709 5709 5710 5711 5713 5714 5715 5716 5718 5719 5720 5720 5720 5721 5721 5722 5724 5725 5726 5727 5727
5815 5814 5813 5811 5810 5809 5808 5807 5806 5805 5804 5803 5802 5800 5799 5797 5797 5795 5795 5794 5793 5791 5790 5789 5788 5787 5786 5784 5782 5782 5782 5781 5779 5777 5775 5773 5771 5769 5766 5763 5761 5757 5755 5755 5753 5751 5750 5748 5747 5744 5739 5732 5728 5727 5722 5717 5719 5718 5716 5715 5712 5710 5710 5709 5709 5709 5709 5709 5709 5709 5710 5711 5711 5711 5712 5713 5714 5715 5716 5715 5716 5716 5717 5718 5719 5720 5721 5723
5817 5816 5815 5814 5813 5812 5811 5809 5808 5808 5807 5807 5806 5805 5803 5802 5801 5799 5798 5797 5794 5793 5792 5791 5790 5789 5788 5786 5786 5785 5784 5782 5780 5778 5776 5774 5773 5771 5767 5765 5762 5760 5761 5760 5757 5754 5753 5753 5751 5744 5736 5730 5727 5725 5722 5722 5723 5722 5720 5718 5716 5715 5713 5711 5710 5709 5708 5708 5708 5708 5708 5709 5710 5710 5710 5710 5711 5711 5711 5712 5712 5712 5713 5713 5714 5715 5716 5717
5819 5818 5817 5816 5815 5814 5813 5812 5811 5810 5809 5809 5809 5808 5807 5805 5804 5802 5800 5798 5796 5796 5795 5794 5793 5792 5790 5789 5788 5787 5785 5784 5781 5779 5777 5776 5774 5771 5768 5766 5764 5764 5765 5762 5758 5755 5756 5755 5748 5739 5732 5730 5728 5726 5725 5726 5726 5725 5723 5722 5721 5718 5715 5714 5712 5711 5709 5709 5710 5709 5708 5709 5709 5709 5708 5708 5708 5708 5708 5708 5709 5709 5709 5709 5709 5709 5710 5711
5822 5821 5819 5818 5817 5816 5815 5814 5813 5811 5810 5810 5809 5809 5807 5806 5805 5804 5802 5801 5800 5799 5798 5797 5796 5794 5792 5791 5789 5788 5787 5785 5782 5781 5779 5777 5775 5772 5769 5767 5766 5767 5765 5761 5757 5756 5757 5754 5744 5738 5735 5732 5730 5728 5728 5729 5729 5728 5726 5725 5724 5721 5718 5716 5715 5714 5712 5712 5713 5711 5710 5710 5710 5709 5709 5708 5708 5707 5707 5707 5707 5707 5706 5706 5706 5705 5705 5706
5824 5823 5822 5820 5819 5818 5817 5816 5815 5813 5812 5811 5810 5810 5808 5807 5807 5806 5805 5804 5803 5801 5800 5799 5797 5795 5794 5792 5791 5789 5788 5785 5783 5782 5780 5778 5776 5774 5772 5770 5769 5767 5764 5760 5758 5757 5757 5751 5743 5741 5738 5734 5732 5732 5732 5732 5731 5729 5728 5727 5725 5722 5720 5719 5718 5717 5715 5715 5714 5712 5712 5712 5712 5711 5711 5710 5709 5708 5707 5707 5706 5705 5704 5704 5703 5702 5702 5702
5826 5825 5824 5822 5821 5820 5819 5818 5817 5815 5814 5813 5812 5811 5809 5808 5808 5807 5807 5806 5804 5803 5801 5800 5798 5796 5795 5793 5792 5790 5788 5786 5785 5783 5781 5779 5777 5775 5773 5772 5770 5767 5764 5762 5760 5758 5755 5749 5745 5743 5739 5737 5737 5736 5735 5733 5732 5731 5729 5727 5725 5722 5722 5721 5720 5719 5718 5716 5715 5713 5713 5713 5713 5712 5712 5711 5710 5709 5708 5707 5706 5705 5704 5703 5702 5701 5700 5699
5828 5826 5825 5824 5823 5822 5820 5819 5818 5817 5816 5814 5814 5812 5811 5810 5809 5808 5807 5806 5805 5803 5802 5800 5799 5797 5795 5794 5792 5791 5789 5787 5786 5784 5782 5781 5778 5776 5774 5772 5770 5767 5765 5763 5760 5758 5754 5750 5747 5744 5742 5741 5739 5738 5737 5736 5734 5732 5730 5728 5726 5724 5724 5722 5721 5721 5720 5718 5716 5714 5714 5713 5713 5712 5711 5711 5710 5709 5708 5707 5706 5705 5704 5703 5702 5701 5699 5698
5829 5828 5827 5825 5824 5823 5822 5820 5819 5819 5818 5816 5815 5814 5813 5811 5810 5809 5808 5807 5806 5804 5803 5801 5799 5798 5796 5795 5793 5791 5790 5788 5787 5785 5783 5781 5779 5777 5775 5773 5770 5768 5765 5762 5760 5757 5754 5751 5748 5746 5744 5743 5741 5741 5740 5738 5736 5733 5731 5729 5727 5726 5725 5724 5723 5721 5720 5719 5717 5715 5714 5713 5712 5711 5710 5709 5708 5707 5706 5705 5705 5704 5704 5702 5701 5700 5698 5697
5830 5829 5828 5827 5825 5824 5823 5822 5820 5820 5819 5817 5816 5815 5814 5813 5811 5810 5809 5808 5807 5805 5803 5802 5800 5798 5796 5795 5793 5792 5791 5789 5788 5786 5784 5782 5779 5777 5775 5773 5771 5768 5765 5763 5761 5758 5755 5752 5750 5748 5746 5744 5744 5743 5741 5739 5737 5735 5732 5730 5728 5727 5725 5724 5723 5721 5720 5718 5716 5715 5714 5713 5712 5711 5709 5708 5707 5706 5704 5704 5703 5702 5702 5700 5699 5698 5697 5696
5831 5830 5829 5828 5827 5825 5824 5823 5821 5820 5819 5818 5817 5816 5815 5814 5813 5811 5810 5809 5807 5805 5803 5802 5800 5798 5796 5795 5794 5793 5791 5789 5787 5786 5784 5782 5780 5778 5775 5772 5770 5768 5766 5764 5761 5759 5756 5753 5751 5750 5748 5746 5745 5744 5742 5739 5737 5735 5733 5731 5729 5727 5725 5724 5723 5722 5720 5718 5716 5715 5714 5712 5711 5710 5709 5707 5706 5704 5703 5703 5702 5700 5699 5698 5697 5696 5695 5694
5832 5831 5830 5829 5827 5826 5825 5823 5822 5821 5820 5819 5818 5816 5815 5814 5813 5812 5811 5809 5808 5806 5804 5803 5801 5799 5797 5796 5794 5793 5791 5789 5787 5785 5783 5782 5780 5778 5776 5773 5771 5768 5766 5764 5762 5759 5757 5755 5753 5751 5749 5747 5746 5744 5742 5740 5738 5736 5733 5731 5729 5727 5726 5725 5723 5722 5720 5718 5716 5715 5713 5712 5711 5709 5708 5706 5705 5704 5702 5701 5700 5698 5697 5695 5694 5693 5692 5691
5832 5831 5830 5829 5828 5827 5825 5824 5823 5821 5820 5819 5818 5817 5815 5814 5813 5812 5810 5809 5807 5805 5804 5803 5802 5800 5798 5796 5794 5793 5791 5789 5788 5786 5784 5782 5780 5778 5776 5774 5772 5769 5766 5764 5762 5759 5757 5755 5753 5752 5750 5748 5747 5744 5742 5740 5738 5736 5734 5732 5730 5728 5726 5724 5723 5721 5720 5718 5716 5714 5713 5711 5710 5708 5707 5705 5704 5703 5701 5700 5698 5697 5695 5694 5692 5691 5689 5687
5832 5831 5830 5829 5828 5827 5825 5824 5823 5822 5820 5819 5818 5816 5815 5814 5813 5811 5810 5808 5807 5805 5804 5802 5801 5800 5798 5796 5794 5792 5790 5788 5787 5785 5784 5782 5780 5778 5775 5773 5771 5769 5767 5765 5762 5759 5757 5755 5753 5751 5750 5748 5747 5744 5742 5740 5738 5736 5734 5732 5730 5728 5727 5725 5723 5720 5719 5717 5716 5714 5712 5710 5708 5707 5706 5704 5703 5701 5700 5699 5697 5695 5694 5692 5690 5688 5686 5684
5832 5831 5830 5829 5828 5826 5825 5824 5823 5821 5820 5819 5817 5816 5814 5813 5812 5811 5809 5807 5806 5805 5803 5802 5800 5799 5797 5796 5794 5792 5790 5788 5786 5784 5782 5781 5779 5777 5775 5773 5771 5769 5767 5764 5762 5760 5757 5755 5752 5750 5748 5747 5745 5744 5742 5740 5738 5736 5734 5732 5730 5729 5727 5725 5723 5720 5718 5716 5714 5712 5710 5709 5707 5705 5704 5703 5701 5700 5698 5697 5695 5693 5691 5690 5688 5686 5684 5682
5831 5830 5829 5828 5827 5826 5825 5823 5822 5821 5820 5818 5817 5815 5814 5812 5811 5810 5808 5806 5805 5804 5802 5801 5799 5798 5796 5795 5793 5791 5790 5788 5786 5784 5782 5780 5778 5777 5775 5773 5770 5768 5766 5764 5762 5760 5757 5754 5752 5750 5748 5746 5744 5742 5741 5739 5737 5735 5733 5731 5730 5728 5726 5724 5723 5720 5717 5715 5713 5711 5708 5706 5704 5703 5702 5701 5700 5698 5696 5695 5693 5691 5689 5687 5685 5683 5681 5679
5831 5830 5829 5828 5826 5825 5824 5823 5822 5820 5819 5818 5816 5815 5813 5812 5810 5809 5807 5805 5804 5802 5801 5799 5798 5797 5795 5794 5792 5790 5789 5787 5785 5783 5781 5779 5777 5775 5774 5772 5770 5767 5765 5763 5761 5759 5757 5755 5752 5750 5747 5745 5743 5742 5740 5738 5736 5734 5733 5731 5729 5727 5725 5723 5722 5720 5718 5714 5711 5709 5706 5704 5702 5701 5700 5698 5697 5696 5694 5692 5690 5689 5687 5684 5682 5680 5678 5676
5830 5829 5828 5827 5825 5824 5823 5822 5821 5819 5818 5817 5816 5814 5813 5811 5809 5808 5806 5805 5803 5801 5799 5798 5797 5795 5794 5792 5791 5789 5787 5786 5784 5782 5779 5777 5775 5773 5772 5770 5768 5767 5764 5762 5759 5757 5756 5754 5752 5749 5746 5744 5742 5740 5739 5737 5735 5733 5731 5730 5728 5725 5723 5722 5720 5719 5717 5714 5711 5707 5705 5702 5699 5698 5697 5695 5694 5693 5691 5689 5687 5685 5683 5681 5679 5677 5674 5672
5828 5827 5826 5825 5824 5823 5822 5821 5820 5819 5817 5816 5815 5813 5811 5810 5808 5806 5805 5803 5802 5800 5798 5796 5795 5793 5792 5791 5789 5787 5786 5784 5782 5781 5778 5776 5774 5772 5770 5769 5767 5766 5764 5761 5758 5756 5754 5753 5751 5749 5746 5743 5740 5738 5736 5734 5732 5731 5729 5727 5725 5723 5721 5719 5718 5717 5716 5714 5710 5706 5703 5700 5697 5695 5693 5692 5690 5688 5686 5684 5682 5680 5678 5676 5674 5672 5670 5668
5827 5826 5825 5824 5823 5822 5820 5819 5818 5817 5816 5815 5813 5812 5810 5808 5807 5805 5803 5802 5800 5798 5796 5795 5793 5791 5790 5789 5787 5786 5784 5782 5780 5779 5777 5775 5773 5771 5769 5767 5765 5764 5762 5760 5758 5755 5752 5750 5749 5748 5746 5743 5739 5736 5734 5732 5730 5728 5726 5724 5722 5721 5719 5717 5715 5714 5713 5712 5709 5705 5700 5697 5694 5691 5690 5688 5686 5683 5681 5679 5677 5675 5673 5671 5669 5667 5664 5661
5825 5824 5823 5822 5820 5819 5818 5817 5816 5815 5814 5813 5812 5810 5808 5807 5805 5803 5802 5800 5799 5797 5795 5793 5791 5789 5788 5786 5785 5784 5782 5780 5778 5777 5775 5773 5771 5769 5767 5765 5763 5761 5760 5758 5756 5753 5750 5748 5746 5746 5744 5742 5739 5735 5732 5730 5728 5726 5723 5721 5719 5718 5716 5714 5711 5710 5709 5708 5707 5703 5699 5694 5690 5687 5686 5684 5682 5679 5677 5675 5672 5670 5667 5664 5662 5659 5656 5652
5823 5822 5821 5819 5818 5817 5816 5815 5814 5813 5812 5810 5809 5808 5806 5805 5803 5801 5800 5798 5797 5795 5793 5791 5789 5787 5785 5784 5783 5781 5780 5778 5776 5774 5773 5771 5769 5767 5765 5763 5761 5759 5757 5755 5754 5752 5749 5746 5743 5742 5742 5740 5737 5734 5731 5728 5726 5724 5721 5719 5717 5715 5713 5710 5708 5705 5704 5703 5703 5702 5698 5692 5687 5684 5682 5680 5678 5675 5672 5670 5667 5664 5661 5657 5654 5651 5648 5644
5821 5820 5818 5817 5816 5815 5813 5812 5811 5810 5809 5808 5806 5805 5804 5802 5801 5799 5798 5796 5794 5793 5791 5789 5787 5785 5783 5781 5780 5779 5777 5776 5774 5772 5770 5769 5767 5765 5762 5760 5758 5756 5754 5752 5750 5749 5747 5744 5740 5738 5738 5737 5735 5733 5730 5726 5724 5722 5719 5717 5715 5712 5710 5708 5705 5702 5699 5697 5697 5698 5696 5690 5683 5681 5679 5677 5674 5671 5668 5665 5663 5660 5656 5652 5648 5645 5642 5638
5818 5817 5816 5815 5814 5812 5811 5809 5808 5807 5806 5805 5803 5802 5801 5799 5798 5796 5795 5793 5792 5790 5789 5787 5785 5783 5780 5778 5777 5776 5775 5773 5772 5770 5768 5766 5764 5762 5760 5757 5755 5754 5751 5749 5747 5746 5744 5742 5739 5735 5733 5733 5732 5730 5728 5724 5721 5719 5717 5714 5712 5710 5707 5705 5702 5699 5696 5693 5691 5692 5693 5687 5679 5676 5675 5672 5669 5666 5663 5660 5657 5654 5651 5647 5643 5639 5635 5631
5815 5815 5814 5813 5811 5810 5809 5807 5806 5804 5803 5802 5800 5799 5798 5796 5795 5794 5792 5791 5789 5788 5786 5785 5783 5781 5778 5776 5774 5772 5771 5770 5769 5767 5765 5763 5761 5759 5757 5755 5752 5750 5748 5746 5744 5742 5741 5739 5737 5734 5730 5729 5728 5727 5725 5722 5718 5716 5714 5711 5709 5707 5704 5701 5698 5696 5693 5691 5686 5685 5687 5684 5675 5672 5670 5667 5664 5661 5658 5655 5652 5649 5646 5641 5638 5633 5628 5624
5812 5812 5811 5810 5809 5807 5806 5805 5803 5801 5800 5799 5797 5796 5795 5793 5792 5791 5789 5788 5786 5785 5783 5782 5780 5778 5776 5774 5772 5770 5768 5767 5766 5764 5762 5761 5758 5756 5754 5752 5749 5747 5745 5743 5741 5739 5737 5736 5734 5732 5728 5725 5724 5723 5721 5718 5715 5712 5711 5708 5705 5703 5702 5698 5695 5692 5689 5688 5683 5680 5681 5679 5672 5668 5666 5662 5658 5656 5653 5650 5646 5644 5640 5635 5631 5627 5623 5618
5809 5809 5808 5807 5806 5804 5803 5802 5800 5799 5797 5796 5794 5793 5792 5790 5789 5788 5786 5785 5783 5782 5780 5779 5777 5775 5773 5771 5769 5767 5765 5763 5763 5761 5759 5758 5755 5753 5751 5749 5746 5744 5742 5740 5738 5735 5734 5732 5731 5729 5726 5723 5720 5719 5717 5714 5711 5708 5706 5704 5701 5699 5698 5695 5691 5687 5685 5684 5680 5675 5675 5674 5669 5665 5662 5657 5654 5651 5648 5644 5640 5638 5635 5630 5625 5621 5617 5612
5806 5805 5804 5803 5802 5801 5800 5799 5797 5796 5794 5793 5791 5790 5789 5787 5786 5785 5783 5782 5780 5778 5776 5775 5773 5771 5770 5768 5766 5764 5761 5760 5759 5758 5756 5754 5752 5750 5748 5745 5742 5740 5738 5735 5733 5731 5730 5728 5726 5724 5723 5720 5717 5715 5713 5710 5707 5703 5701 5699 5696 5694 5692 5691 5688 5684 5680 5679 5676 5672 5669 5669 5665 5659 5656 5653 5650 5646 5642 5638 5634 5631 5628 5624 5619 5614 5609 5604
5802 5802 5801 5800 5799 5798 5797 5795 5794 5792 5791 5790 5788 5787 5785 5784 5783 5782 5780 5778 5776 5774 5773 5771 5769 5767 5766 5764 5762 5760 5758 5756 5755 5754 5753 5751 5749 5746 5744 5742 5739 5736 5734 5731 5729 5727 5726 5724 5721 5719 5717 5715 5713 5711 5708 5706 5703 5699 5696 5694 5691 5688 5687 5686 5684 5680 5675 5672 5672 5668 5663 5664 5662 5653 5649 5647 5644 5641 5637 5633 5629 5625 5620 5616 5611 5606 5601 5597
5799 5798 5797 5797 5796 5795 5793 5792 5791 5789 5788 5786 5785 5783 5782 5781 5780 5778 5777 5775 5773 5771 5769 5767 5765 5764 5762 5759 5758 5756 5754 5752 5751 5750 5748 5747 5745 5743 5740 5738 5735 5732 5730 5728 5725 5722 5721 5720 5717 5715 5713 5710 5708 5706 5704 5702 5698 5694 5691 5688 5685 5682 5681 5680 5678 5675 5670 5665 5666 5663 5656 5657 5658 5649 5643 5641 5638 5634 5631 5628 5624 5620 5614 5608 5603 5598 5593 5588
5795 5794 5794 5793 5792 5791 5790 5789 5787 5786 5784 5783 5781 5780 5778 5777 5776 5775 5773 5771 5769 5767 5766 5764 5762 5760 5758 5756 5754 5752 5750 5748 5747 5746 5744 5743 5741 5739 5736 5734 5731 5728 5726 5724 5720 5717 5715 5715 5712 5711 5709 5706 5703 5702 5699 5697 5694 5689 5686 5683 5680 5676 5675 5674 5672 5669 5664 5659 5660 5658 5650 5650 5651 5644 5638 5636 5631 5627 5625 5621 5617 5613 5607 5601 5596 5591 5586 5580
5791 5790 5790 5789 5788 5787 5786 5785 5784 5782 5781 5780 5778 5776 5775 5773 5772 5771 5769 5767 5766 5764 5762 5761 5759 5757 5755 5752 5750 5748 5746 5744 5743 5742 5741 5738 5736 5735 5732 5730 5727 5724 5721 5719 5716 5712 5710 5709 5707 5706 5705 5701 5698 5696 5695 5693 5689 5685 5681 5678 5675 5671 5669 5668 5667 5663 5657 5653 5653 5651 5645 5643 5642 5636 5633 5630 5624 5620 5618 5614 5610 5606 5599 5593 5587 5583 5578 5572
5787 5786 5786 5785 5784 5783 5782 5781 5780 5779 5777 5776 5774 5772 5771 5769 5768 5767 5765 5763 5762 5760 5759 5757 5755 5753 5751 5749 5746 5744 5742 5740 5739 5738 5737 5734 5732 5730 5728 5726 5723 5720 5717 5715 5712 5709 5705 5703 5702 5701 5700 5698 5693 5691 5690 5688 5685 5680 5676 5672 5669 5666 5663 5662 5661 5658 5651 5647 5646 5643 5639 5638 5633 5627 5625 5623 5617 5612 5609 5606 5603 5598 5591 5584 5578 5573 5568 5562
5782 5781 5781 5780 5780 5779 5778 5777 5776 5775 5774 5772 5771 5768 5767 5765 5764 5763 5761 5759 5757 5756 5755 5753 5752 5750 5748 5745 5742 5740 5738 5736 5734 5734 5732 5730 5728 5726 5723 5721 5719 5716 5713 5710 5708 5705 5700 5698 5696 5694 5694 5693 5689 5685 5684 5683 5680 5675 5670 5667 5663 5660 5657 5655 5655 5652 5645 5641 5639 5635 5633 5633 5628 5619 5616 5614 5609 5604 5601 5598 5595 5589 5581 5574 5569 5563 5557 5551
5778 5777 5776 5775 5775 5774 5774 5773 5772 5771 5770 5769 5767 5765 5762 5761 5760 5759 5757 5756 5754 5752 5751 5749 5748 5746 5744 5741 5738 5736 5734 5732 5730 5729 5728 5726 5724 5721 5718 5716 5714 5711 5708 5705 5703 5700 5695 5693 5691 5688 5687 5687 5684 5680 5679 5678 5675 5670 5665 5662 5658 5654 5651 5649 5648 5646 5640 5635 5632 5629 5626 5626 5622 5616 5612 5607 5601 5595 5591 5588 5585 5579 5571 5564 5559 5553 5547 5540
5774 5773 5772 5771 5770 5770 5769 5768 5768 5767 5766 5765 5763 5760 5758 5757 5756 5755 5753 5751 5750 5748 5747 5745 5743 5741 5739 5736 5734 5732 5730 5727 5725 5724 5723 5721 5719 5716 5713 5711 5709 5706 5703 5700 5697 5695 5690 5686 5685 5682 5680 5680 5678 5674 5672 5671 5670 5665 5659 5655 5652 5648 5646 5643 5641 5639 5634 5628 5625 5622 5620 5618 5613 5610 5607 5603 5597 5589 5582 5579 5575 5568 5561 5556 5550 5543 5537 5530